GEFSSGP_con_probscp_060.txt.gz
Probability
0 0 0 0 0 0 0 0 0 0 0 0 0 0 0 0 0 0 0 0 2 3 2 6 17 25 25 22 16 9 4 1 0 0 0 0 0 0 1 1 1 0 0 0 0 0 0 0 0
0 0 0 0 0 0 0 0 0 0 0 0 0 0 0 0 0 0 0 1 3 5 4 8 17 21 19 16 11 6 3 1 0 0 0 0 0 0 0 0 0 0 0 0 0 0 0 0 0
0 0 0 0 0 0 0 0 0 0 0 0 0 0 0 0 0 0 1 2 4 6 6 9 15 17 14 9 5 2 1 0 0 0 0 0 0 0 0 0 0 0 0 0 0 0 0 0 0
0 0 0 0 0 0 0 0 0 0 0 1 3 2 0 0 1 1 1 2 4 6 6 8 11 13 10 6 3 1 0 0 0 0 0 0 0 0 0 0 0 0 0 0 0 0 0 0 0
0 0 0 0 0 0 0 0 0 0 0 3 7 7 3 3 4 3 1 2 4 5 6 7 8 9 8 5 2 1 0 0 0 0 0 0 0 0 0 0 0 0 0 0 0 0 0 0 0
0 0 0 0 0 0 0 0 0 0 1 5 10 11 9 8 7 4 1 1 3 4 4 5 6 7 7 5 2 0 0 0 0 0 0 0 0 0 0 0 0 0 0 0 0 0 0 0 0
0 0 0 0 0 0 0 0 0 0 1 5 10 12 11 9 6 3 1 1 3 4 3 2 3 4 4 3 1 0 0 0 0 0 0 0 0 0 0 0 0 0 0 0 0 0 0 0 0
0 0 0 0 0 0 0 0 0 1 3 5 7 8 9 8 7 4 2 1 2 2 1 0 1 1 1 1 0 0 0 0 0 0 0 0 0 0 0 0 1 1 1 0 0 0 0 0 0
0 0 0 0 0 0 0 0 0 1 4 7 8 9 10 13 13 9 4 2 1 1 0 0 0 1 1 0 0 0 0 0 0 0 0 0 0 0 0 0 1 2 1 1 1 0 0 0 0
0 0 0 0 0 0 0 0 0 1 4 8 12 14 15 18 17 13 8 4 1 0 0 0 0 1 1 1 0 0 0 0 0 0 0 0 0 0 0 0 2 2 1 0 0 0 0 0 0
0 0 0 0 0 0 0 0 0 0 2 5 11 17 19 17 15 14 12 8 4 1 1 0 0 1 1 1 0 0 0 0 0 0 0 0 0 0 0 0 1 2 1 0 0 0 0 0 0
0 0 0 0 0 0 0 0 0 0 0 2 9 17 20 16 13 12 13 12 8 4 2 1 0 0 0 0 0 0 0 0 0 0 0 0 0 0 0 0 1 1 0 0 0 0 0 0 0
0 0 0 0 0 0 0 0 0 0 1 4 10 17 20 17 13 11 12 15 15 10 4 2 1 0 0 0 0 0 0 0 0 0 0 0 0 0 0 0 0 0 0 0 0 0 0 0 0
0 0 0 0 0 0 0 0 0 1 3 6 11 15 17 17 15 13 13 17 20 17 9 4 1 0 0 0 0 0 0 1 1 0 0 1 1 1 1 1 1 0 0 0 0 0 0 0 0
0 0 0 0 0 0 0 0 0 1 4 7 11 13 15 18 19 16 14 17 21 22 17 11 7 5 5 4 3 2 2 3 3 1 1 2 2 2 2 2 2 1 0 0 0 0 0 0 0
0 0 0 0 0 0 0 0 0 1 3 6 9 12 18 23 24 21 18 17 20 24 28 28 25 24 23 20 15 12 9 8 6 5 5 6 6 6 5 4 3 1 0 0 0 0 0 0 0
0 0 0 0 0 0 0 0 0 1 3 5 7 14 24 30 30 28 26 23 23 29 39 46 49 51 51 45 37 30 25 20 17 15 14 13 13 11 9 6 3 1 0 0 0 0 0 0 0
0 0 0 0 0 0 0 1 1 3 5 7 9 18 31 38 39 38 39 36 31 33 45 57 64 69 71 68 60 54 48 41 33 29 26 23 21 19 15 10 4 1 0 0 0 0 0 0 0
0 0 0 0 0 0 1 3 5 8 13 16 20 31 42 49 49 47 47 45 38 37 45 56 66 75 80 80 76 71 65 54 44 37 33 30 27 26 21 13 5 1 0 0 0 0 0 0 0
0 0 0 0 0 1 3 6 10 16 23 29 35 43 49 52 51 49 46 42 39 38 43 53 65 76 83 84 81 74 64 52 42 35 31 28 28 26 22 15 8 3 1 0 0 0 0 0 0
0 0 0 0 0 1 4 7 12 21 30 38 44 46 45 44 45 44 40 36 35 37 42 52 64 75 82 84 80 71 59 47 38 30 24 22 21 19 17 13 8 4 2 0 0 0 0 0 0
0 0 0 0 0 0 2 4 10 21 32 41 45 42 38 37 38 39 38 34 32 36 42 50 61 71 77 79 75 67 54 44 33 22 15 12 11 10 9 7 4 2 1 0 0 0 0 0 0
0 0 0 0 0 0 0 2 9 18 29 40 43 38 33 31 31 33 35 35 34 36 39 44 52 57 60 60 57 51 42 33 22 12 6 3 3 3 2 1 0 0 0 0 0 0 0 0 0
0 0 0 0 0 0 0 3 9 15 24 33 34 29 23 22 22 23 26 31 33 32 32 33 35 35 33 32 30 27 24 18 11 5 1 0 0 0 0 0 0 0 0 0 0 0 0 0 0
0 0 0 0 0 0 1 5 11 14 19 22 21 17 14 13 14 14 16 20 22 22 21 19 18 16 14 13 12 11 9 7 5 2 0 0 0 0 0 0 0 0 0 0 0 0 0 0 0
0 0 0 0 0 0 2 10 15 14 13 14 11 9 8 8 8 8 9 10 10 10 10 9 8 7 6 5 5 3 2 2 1 0 0 0 0 0 0 0 0 0 0 0 0 0 0 0 0
0 0 0 0 0 0 2 10 15 14 10 8 6 5 4 3 3 3 4 4 3 3 3 4 3 3 2 1 1 1 0 0 0 0 0 0 0 0 0 0 0 0 0 0 0 0 0 0 0
0 0 0 0 0 0 1 5 11 12 8 4 3 1 1 0 0 0 1 1 1 1 1 1 1 1 0 0 0 0 0 0 0 0 0 0 0 0 0 0 0 0 0 0 0 0 0 0 0
0 0 0 0 0 0 0 2 6 9 7 3 1 0 0 0 0 0 0 0 0 0 0 0 0 0 0 0 0 0 0 0 0 0 0 0 0 0 0 0 0 0 0 0 0 0 0 0 0
0 0 0 0 0 0 1 3 5 7 5 3 1 0 0 0 0 0 0 0 0 0 0 0 0 0 0 0 0 0 0 0 0 0 0 0 0 0 0 0 0 0 0 0 0 0 0 0 0

GEFSSGP_con_probscp_066.txt.gz
Probability
0 0 0 0 0 0 0 0 0 0 0 0 0 0 0 0 0 0 0 0 2 2 1 1 3 6 10 13 14 15 14 13 12 10 5 1 0 0 0 0 0 0 0 0 0 0 0 0 0
0 0 0 0 0 0 0 0 0 0 0 0 0 0 0 0 0 0 0 1 3 4 2 2 5 7 9 12 14 13 9 8 8 6 3 0 0 0 0 0 0 0 0 0 0 0 0 0 0
0 0 0 0 0 0 0 0 0 0 0 0 0 0 0 0 0 0 0 1 4 5 2 3 7 8 7 10 12 10 7 5 4 3 1 0 0 0 0 0 0 0 0 0 0 0 0 0 0
0 0 0 0 0 0 0 0 0 0 0 0 0 0 0 0 0 0 2 3 5 4 3 5 9 8 5 7 9 8 7 6 3 1 0 0 0 0 0 0 0 0 0 0 0 0 0 0 0
0 0 0 0 0 0 0 0 0 0 0 0 0 0 0 0 0 1 3 6 6 5 4 6 9 7 3 3 5 6 5 4 2 1 0 0 0 0 0 0 0 0 0 0 0 0 0 0 0
0 0 0 0 0 0 0 0 0 0 0 0 0 0 0 0 0 1 3 6 7 6 5 6 7 5 2 2 3 4 3 2 1 0 0 0 0 0 0 0 0 0 0 0 0 0 0 0 0
0 0 0 0 0 0 0 0 0 0 0 0 0 0 0 0 0 1 3 5 5 4 4 4 4 3 2 2 2 2 1 1 0 0 0 0 0 0 0 0 0 0 0 0 0 0 0 0 0
0 0 0 0 0 0 0 0 0 0 0 0 0 0 0 1 1 2 5 6 5 3 2 2 2 2 1 1 1 1 0 0 0 0 0 0 0 0 0 0 0 0 0 0 0 0 0 0 0
0 0 0 0 0 0 0 0 0 0 0 0 1 2 4 6 5 5 8 9 7 3 0 0 1 1 0 0 0 0 0 0 0 0 0 0 0 0 0 0 0 0 0 0 0 0 0 0 0
0 0 0 0 0 0 0 0 0 0 0 0 2 7 15 16 9 7 10 10 7 2 0 0 0 0 0 0 0 0 0 0 0 0 0 0 0 0 0 0 0 0 0 0 0 0 0 0 0
0 0 0 0 0 0 0 0 0 0 0 0 5 19 32 27 14 9 9 7 3 1 1 0 0 0 0 0 0 0 0 0 0 0 0 0 0 0 0 0 0 0 0 0 0 0 0 0 0
0 0 0 0 0 0 0 0 0 0 0 1 12 35 47 34 15 7 5 3 0 0 0 0 0 0 0 0 1 0 0 0 0 0 0 0 0 0 0 0 0 0 0 0 0 0 0 0 0
0 0 0 0 0 0 0 0 0 0 0 5 23 45 51 35 15 4 2 1 0 0 0 0 1 1 1 0 1 0 0 0 0 0 0 0 0 0 0 0 0 0 0 0 0 0 0 0 0
0 0 0 0 0 0 0 0 0 0 2 11 27 41 43 32 16 6 2 1 0 0 0 0 1 2 1 1 1 1 0 0 0 0 0 0 0 0 0 0 0 0 0 0 0 0 0 0 0
0 0 0 0 0 0 0 0 0 2 5 12 20 26 29 24 17 11 5 1 1 1 0 1 2 2 1 1 1 1 0 0 0 0 0 0 0 0 0 0 0 0 0 0 0 0 0 0 0
0 0 0 0 0 0 0 0 1 3 6 9 11 14 17 19 17 13 7 3 2 2 1 2 3 3 2 1 0 0 0 0 0 0 0 0 0 0 0 0 0 0 0 0 0 0 0 0 0
0 0 0 0 0 0 0 1 4 5 7 8 9 10 13 17 19 16 10 6 5 5 5 6 7 7 5 4 3 2 2 1 1 1 1 1 1 0 0 0 0 0 0 0 0 0 0 0 0
0 0 0 0 0 0 1 3 8 11 11 11 11 11 14 18 21 20 16 13 11 11 12 15 18 18 16 15 13 11 8 5 3 2 2 2 2 2 1 0 0 0 0 0 0 0 0 0 0
0 0 0 0 0 0 1 6 12 17 17 16 15 14 16 20 23 23 22 22 20 19 21 26 30 31 32 34 31 26 19 10 4 3 3 3 3 3 3 1 0 1 1 1 0 0 0 0 0
0 0 0 0 0 1 3 8 14 18 21 22 21 20 20 22 24 24 25 24 24 25 25 28 34 38 44 48 44 37 27 15 7 5 4 4 3 2 3 2 2 2 2 1 0 0 0 0 0
0 0 0 0 1 2 5 9 14 18 24 27 26 24 23 22 21 21 22 20 21 23 25 27 32 38 44 48 47 40 29 19 13 9 7 5 2 1 2 2 3 3 2 1 0 0 0 0 0
0 0 0 0 0 1 3 8 14 20 23 25 22 20 20 17 15 15 15 14 17 20 25 27 31 33 34 35 37 35 28 21 15 11 8 5 2 1 1 1 2 2 1 1 0 0 0 0 0
0 0 0 0 0 0 0 5 12 16 17 16 12 11 11 10 8 9 11 12 14 17 20 21 22 22 19 20 23 25 22 17 12 8 5 3 1 0 0 0 1 1 0 0 0 0 0 0 0
0 0 0 0 0 0 0 3 8 9 9 8 6 5 5 4 4 6 9 10 11 11 11 11 10 10 10 10 12 14 13 11 8 5 2 1 0 0 0 0 0 0 0 0 0 0 0 0 0
0 0 0 0 0 0 3 6 7 6 4 4 4 3 3 3 4 5 7 7 6 5 5 5 4 5 6 6 7 8 8 7 5 2 1 0 0 0 0 0 0 0 0 0 0 0 0 0 0
0 0 0 0 0 1 6 10 9 5 3 3 3 3 3 3 3 3 3 3 2 2 2 3 3 4 4 3 3 4 4 3 2 1 0 0 0 0 0 0 0 0 0 0 0 0 0 0 0
0 0 0 0 0 1 5 8 6 3 2 2 2 2 2 1 1 1 1 1 0 0 0 1 2 2 2 1 1 1 1 1 0 0 0 0 0 0 0 0 0 0 0 0 0 0 0 0 0
0 0 0 0 0 0 2 3 2 2 1 1 1 1 1 0 0 0 0 0 0 0 0 0 1 1 1 0 0 0 0 0 0 0 0 0 0 0 0 0 0 0 0 0 0 0 0 0 0
0 0 0 0 0 0 0 0 1 1 2 1 0 0 0 0 0 0 0 0 0 0 0 0 0 0 0 0 0 0 0 0 0 0 0 0 0 0 0 0 0 0 0 0 0 0 0 0 0
0 0 0 0 0 0 0 0 1 1 2 2 1 0 0 0 0 0 0 0 0 0 0 0 0 0 0 0 0 0 0 0 0 0 0 0 0 0 0 0 0 0 0 0 0 0 0 0 0

GEFSSGP_con_probscp_072.txt.gz
Probability
0 0 0 0 0 0 0 0 0 0 0 0 0 0 0 0 0 0 1 4 9 14 14 10 9 11 12 20 33 42 41 36 30 21 13 5 1 0 0 0 0 0 0 0 0 0 0 0 0
0 0 0 0 0 0 0 0 0 0 0 0 0 0 0 0 0 0 1 5 10 14 12 8 8 11 15 24 36 45 46 41 35 26 16 7 2 0 0 0 0 0 0 0 0 0 0 0 0
0 0 0 0 0 0 0 0 0 0 0 0 0 0 0 0 0 1 4 9 12 11 7 6 7 10 17 27 39 49 53 49 43 35 22 10 3 0 0 0 0 0 0 0 0 0 0 0 0
0 0 0 0 0 0 0 0 0 0 0 0 0 0 0 0 0 4 9 11 10 6 3 5 9 10 15 26 37 49 57 57 51 42 27 11 3 0 0 0 0 0 0 0 0 0 0 0 0
0 0 0 0 0 0 0 0 0 0 0 0 0 0 0 1 2 7 11 9 5 2 1 4 8 10 13 21 32 43 53 56 51 41 28 13 3 1 0 0 0 0 0 0 0 0 0 0 0
0 0 0 0 0 0 0 0 0 0 0 0 0 0 1 3 7 11 11 5 1 0 0 2 4 6 9 17 25 34 42 45 40 33 24 13 5 2 1 0 0 0 0 0 0 0 0 0 0
0 0 0 0 0 0 0 0 0 0 0 0 0 0 2 6 13 17 13 4 0 0 0 1 1 1 4 9 17 24 30 32 28 23 18 12 7 3 1 0 0 0 0 0 0 0 0 0 0
0 0 0 0 0 0 0 0 0 0 0 0 0 0 4 13 24 29 23 12 4 1 0 0 0 0 1 3 7 13 17 19 17 15 12 8 5 3 1 0 0 0 0 0 0 0 0 0 0
0 0 0 0 0 0 0 0 0 0 0 0 0 1 9 25 38 45 41 27 14 5 1 0 0 0 0 0 2 4 6 7 7 7 5 3 1 1 0 0 0 0 0 0 0 0 0 0 0
0 0 0 0 0 0 0 0 0 0 0 0 0 2 12 27 41 50 50 38 23 10 3 0 0 0 0 2 3 3 3 3 2 2 1 0 0 0 0 0 0 0 0 0 0 0 0 0 0
0 0 0 0 0 0 0 0 0 0 0 0 0 3 10 21 31 39 40 33 23 13 5 1 0 0 1 3 6 7 7 5 3 2 1 0 0 0 0 0 0 0 0 1 1 1 1 0 0
0 0 0 0 0 0 0 0 0 0 0 0 1 4 9 16 22 25 24 21 19 14 7 2 2 2 3 5 6 7 7 6 5 4 2 1 1 0 0 0 0 0 0 1 2 2 1 0 0
0 0 0 0 0 0 0 0 0 0 0 1 4 7 11 15 17 16 15 16 15 14 9 4 2 3 5 6 5 5 5 5 5 4 3 2 2 2 2 2 1 1 1 2 2 1 1 1 1
0 0 0 0 0 0 0 0 0 1 2 4 8 12 14 14 13 12 14 14 14 13 10 6 2 2 4 6 6 6 7 7 7 6 5 5 5 6 6 5 5 4 4 5 4 4 5 4 3
0 0 0 0 0 0 0 0 1 1 4 9 16 21 22 20 17 14 13 12 11 11 10 6 2 1 3 6 9 10 10 10 8 8 8 9 10 11 11 11 11 11 13 15 17 16 15 12 10
0 0 0 0 0 0 0 2 4 5 8 16 24 31 33 30 26 20 14 10 8 8 8 6 3 3 6 10 13 13 13 11 10 10 12 14 14 15 17 19 23 28 31 31 30 29 27 24 22
0 0 0 0 0 0 2 7 11 12 14 21 29 37 41 41 39 33 25 18 10 9 11 10 10 11 14 16 17 17 17 15 15 17 19 19 20 21 25 32 40 45 48 45 39 36 35 33 34
0 0 0 0 0 1 5 12 18 19 20 25 34 41 45 50 53 49 40 30 22 19 20 20 22 26 29 30 29 29 29 27 28 29 28 27 27 29 35 42 47 51 51 48 42 37 35 32 31
0 0 0 0 0 2 7 14 21 26 27 31 39 43 47 53 56 55 48 39 35 34 33 32 35 42 48 50 50 49 48 45 41 38 37 34 32 34 38 41 43 46 44 39 34 30 25 21 18
0 0 0 0 0 2 7 13 21 28 33 37 42 46 49 49 49 49 49 46 45 46 46 46 50 57 62 64 65 66 62 53 43 40 39 34 30 30 31 33 34 35 31 25 21 18 14 10 7
0 0 0 0 0 1 5 11 17 23 31 38 45 49 50 47 44 42 43 47 49 52 55 58 61 67 70 69 68 68 63 50 38 34 32 27 21 20 22 23 23 21 18 14 11 9 7 4 2
0 0 0 0 0 0 2 7 13 17 25 35 42 45 44 42 39 35 35 39 45 51 56 59 62 66 69 68 64 62 56 44 31 25 21 16 11 10 13 13 11 9 7 5 3 2 1 1 2
0 0 0 0 0 0 0 4 11 15 21 28 32 33 31 29 27 25 25 28 33 39 45 49 52 54 56 55 53 50 43 31 20 15 11 8 5 5 6 6 4 3 2 1 0 0 0 1 2
0 0 0 0 0 0 0 4 12 16 18 20 21 20 18 16 15 14 15 17 19 22 27 31 33 33 34 35 34 32 27 19 12 9 6 4 3 3 3 2 0 0 0 0 0 0 0 0 1
0 0 0 0 0 0 0 7 17 20 15 14 15 13 10 8 8 9 9 9 8 9 12 14 14 14 15 16 17 16 14 11 8 6 3 2 1 1 1 0 0 0 0 0 0 0 0 0 0
0 0 0 0 0 0 3 13 22 18 11 10 10 8 6 5 5 5 5 4 3 3 4 5 4 4 4 6 6 6 6 5 4 3 1 0 0 0 0 0 0 0 0 0 0 0 0 0 0
0 0 0 0 0 0 4 13 16 11 6 5 5 4 3 3 3 3 3 2 2 1 1 2 2 1 1 1 1 1 1 1 1 1 0 0 0 0 0 0 0 0 0 0 0 0 0 0 0
0 0 0 0 0 0 2 6 7 6 4 2 1 1 1 1 1 1 1 1 1 0 0 1 1 0 0 0 0 0 0 0 0 0 0 0 0 0 0 0 0 0 0 0 0 0 0 0 0
0 0 0 0 0 0 0 2 5 8 7 3 1 1 1 0 0 0 0 0 0 0 0 0 0 0 0 0 0 0 0 0 0 0 0 0 0 0 0 0 0 0 0 0 0 0 0 0 0
0 0 0 0 0 0 0 2 6 12 11 7 4 3 2 1 0 0 0 0 0 0 0 0 0 0 0 0 0 0 0 0 0 0 0 0 0 0 0 0 0 0 0 0 0 0 0 0 0

GEFSSGP_con_probscp_078.txt.gz
Probability
0 0 0 0 0 0 0 0 0 0 0 0 0 0 0 1 2 4 11 38 71 77 69 70 63 45 28 15 7 4 3 3 3 3 3 3 3 3 3 3 3 3 3 3 3 3 3 3 3
0 0 0 0 0 0 0 0 0 0 0 0 0 0 0 1 2 6 22 52 76 76 68 69 67 52 37 24 13 7 5 4 4 4 4 3 3 3 3 3 3 3 3 3 3 3 3 3 3
0 0 0 0 0 0 0 0 0 0 0 0 0 0 1 2 5 16 38 65 77 70 65 70 71 63 50 36 23 13 7 6 6 6 5 4 4 3 3 3 3 3 3 3 3 3 3 3 3
0 0 0 0 0 0 0 0 0 0 0 0 1 4 8 10 14 29 50 69 72 63 60 66 71 69 59 45 31 19 11 8 8 8 7 5 4 4 3 3 3 3 3 3 3 3 3 3 2
0 0 0 0 0 0 0 0 0 0 0 0 3 13 20 20 24 34 48 61 62 57 55 58 64 65 57 46 34 24 18 15 14 12 8 5 4 3 3 3 3 3 3 3 3 3 2 1 1
0 0 0 0 0 0 0 0 0 0 0 0 6 19 27 26 25 28 33 40 48 53 52 51 54 55 50 42 36 32 28 26 23 15 8 5 4 3 3 3 3 3 3 3 3 3 1 0 0
0 0 0 0 0 0 0 0 0 0 0 0 5 17 28 29 25 21 19 23 37 48 45 39 41 43 40 37 35 35 34 30 25 16 9 6 5 4 3 3 3 3 3 3 3 3 1 0 1
0 0 0 0 0 0 0 0 0 0 0 0 3 15 29 31 25 20 16 19 32 40 32 23 25 29 29 28 30 32 31 27 21 14 9 7 5 5 4 3 3 3 3 3 3 3 2 2 2
0 0 0 0 0 0 0 0 0 0 0 1 6 19 30 27 23 21 21 27 35 35 24 14 14 17 17 20 23 24 22 19 15 11 8 6 4 4 4 5 5 4 3 3 3 3 3 3 3
0 0 0 0 0 0 0 0 0 0 0 2 9 23 30 26 21 22 28 38 42 34 22 14 13 11 10 15 18 16 13 11 10 8 6 5 4 4 4 7 8 5 3 3 3 3 3 3 3
0 0 0 0 0 0 0 0 0 0 0 2 10 24 31 26 21 23 34 44 43 32 21 18 16 11 10 15 16 13 11 10 8 7 6 6 5 4 6 8 8 5 3 3 4 4 3 4 4
0 0 0 0 0 0 0 0 0 0 0 2 10 22 26 21 19 24 37 47 43 32 24 24 27 25 27 30 23 15 14 14 13 12 11 8 7 6 8 10 10 8 7 9 9 8 6 7 8
0 0 0 0 0 0 0 0 0 0 1 3 8 15 17 15 18 28 42 50 47 36 30 34 45 52 55 51 34 20 18 18 21 22 17 11 9 10 13 16 16 14 15 19 20 19 16 15 15
0 0 0 0 0 0 0 0 0 0 1 3 7 11 15 17 23 37 51 57 54 46 42 49 64 73 72 58 40 25 21 22 26 28 23 16 15 20 23 24 24 22 25 32 35 34 30 26 24
0 0 0 0 0 0 0 0 1 1 2 5 9 15 23 28 35 48 60 66 64 61 59 61 68 75 72 57 42 32 27 28 33 35 33 25 23 29 34 34 33 33 37 46 49 46 43 38 34
0 0 0 0 0 0 0 1 3 4 5 10 16 23 33 41 49 60 69 74 74 74 74 66 62 70 69 57 46 41 39 42 46 48 45 37 32 38 45 45 42 43 49 55 55 52 51 47 43
0 0 0 0 0 0 1 4 6 7 11 18 25 33 42 50 58 70 78 81 83 86 84 73 67 72 70 60 53 51 54 60 64 62 59 52 47 51 56 55 52 53 56 56 52 53 55 52 47
0 0 0 1 1 2 4 9 13 16 21 29 35 41 49 55 64 75 83 88 90 92 90 82 78 78 74 65 60 59 63 69 71 70 69 65 61 62 64 61 59 59 58 54 49 48 48 44 39
0 0 1 2 3 5 10 18 25 31 36 41 44 48 53 59 69 77 82 86 88 88 87 82 78 77 75 70 66 64 64 65 64 64 64 62 61 62 62 58 55 53 51 47 42 39 34 28 23
0 0 2 4 5 8 15 25 35 41 45 48 50 53 57 61 67 71 73 76 78 80 79 75 72 72 72 71 69 68 66 61 52 47 46 45 45 47 47 44 40 38 37 34 31 29 23 15 11
0 0 2 3 4 5 12 22 31 38 41 45 50 54 56 56 57 58 59 61 64 68 69 68 68 69 70 71 72 74 72 60 42 31 27 25 24 26 27 25 23 22 20 19 20 19 15 8 5
0 0 1 1 1 2 4 11 21 32 37 41 48 52 51 47 45 44 43 44 45 49 51 55 57 59 63 69 71 71 65 49 30 19 14 11 10 11 11 11 10 9 8 8 8 8 6 3 1
0 0 0 0 0 0 0 4 16 29 33 36 42 45 43 39 36 33 30 29 28 30 32 35 39 42 47 56 60 54 42 28 17 11 8 6 6 5 4 4 3 3 3 2 2 2 1 0 0
0 0 0 0 0 0 0 5 18 31 33 32 35 35 32 30 27 24 22 20 18 19 21 22 24 25 29 34 36 30 21 13 9 7 5 4 4 4 3 2 1 1 1 0 0 0 0 0 0
0 0 0 0 0 0 1 11 29 41 40 34 30 25 21 19 17 16 16 15 14 14 15 15 15 14 15 15 14 13 11 8 5 4 4 3 2 2 1 1 0 0 0 0 0 0 0 0 0
0 0 0 0 0 1 5 22 43 49 43 34 24 16 12 11 11 10 10 9 10 10 9 9 8 7 7 5 4 4 5 4 3 2 2 1 1 1 0 0 0 0 0 0 0 0 0 0 0
0 0 0 0 0 1 8 24 39 42 36 28 18 10 8 8 8 7 5 5 5 5 4 4 3 3 3 2 1 1 1 1 1 1 1 0 0 0 0 0 0 0 0 0 0 0 0 0 0
0 0 0 0 0 1 5 13 22 28 26 21 15 9 6 6 5 4 3 2 1 1 1 1 1 1 1 1 0 0 0 0 0 0 0 0 0 0 0 0 0 0 0 0 0 0 0 0 0
0 0 0 0 0 0 1 4 12 19 19 15 12 8 5 3 1 1 1 1 0 0 0 0 0 0 0 0 0 0 0 0 0 0 0 0 0 0 0 0 0 0 0 0 0 0 0 0 0
0 0 0 0 0 0 1 3 11 17 16 11 9 7 4 2 0 0 0 0 0 0 0 0 0 0 0 0 0 0 0 0 0 0 0 0 0 0 0 0 0 0 0 0 0 0 0 0 0

GEFSSGP_con_probscp_084.txt.gz
Probability
0 0 0 0 0 0 0 0 0 0 0 0 0 0 1 2 2 2 3 6 11 15 14 14 18 21 20 16 12 10 8 6 6 6 3 1 0 1 1 1 0 0 0 0 0 0 0 0 0
0 0 0 0 0 0 0 0 0 0 0 0 0 0 1 2 3 3 5 12 19 20 16 15 19 23 21 16 12 9 6 4 3 2 1 0 0 0 0 0 0 0 0 0 0 0 0 0 0
0 0 0 0 0 0 0 0 0 0 0 0 0 1 2 3 4 5 13 26 31 27 20 19 22 25 24 19 13 10 5 3 2 1 0 0 0 0 0 0 0 0 0 0 0 0 0 0 0
0 0 0 0 0 0 0 0 0 0 0 0 2 4 5 7 12 19 29 41 43 35 27 25 28 29 25 20 16 12 7 3 2 1 0 0 0 0 0 0 0 0 0 0 0 0 0 0 0
0 0 0 0 0 0 0 0 0 0 0 0 4 9 11 15 25 37 42 44 46 44 37 34 35 32 25 21 19 15 9 4 1 1 0 0 0 0 0 0 0 0 0 0 0 0 0 0 0
0 0 0 0 0 0 0 0 0 0 0 1 7 14 16 20 32 42 42 40 44 49 48 44 38 31 24 20 20 17 10 4 1 0 0 0 0 0 0 0 0 0 0 0 0 0 0 0 0
0 0 0 0 0 0 0 0 0 0 0 3 10 18 20 24 34 41 42 40 42 48 52 47 37 27 21 19 18 16 10 5 2 1 0 0 0 0 0 0 0 0 0 0 0 0 0 0 0
0 0 0 0 0 0 0 0 0 0 1 5 13 19 25 33 42 49 49 44 41 42 44 42 35 26 20 17 16 15 11 7 5 3 1 0 0 0 0 0 0 0 0 0 0 0 0 0 0
0 0 0 0 0 0 0 0 0 0 2 8 16 24 36 48 55 59 57 51 42 35 34 35 34 28 21 17 16 14 12 9 7 4 2 0 0 0 0 0 0 0 0 0 0 0 0 0 0
0 0 0 0 0 0 0 0 0 1 4 11 21 34 49 59 63 64 63 56 43 31 29 32 32 27 22 19 18 17 14 9 6 4 2 1 0 0 0 0 0 0 0 0 0 0 0 0 0
0 0 0 0 0 0 0 0 0 1 3 11 25 42 55 60 62 66 65 56 42 30 28 29 28 24 21 20 19 17 13 7 4 3 2 1 0 0 0 0 0 0 0 0 0 0 0 0 0
0 0 0 0 0 0 0 0 0 1 4 13 28 43 51 54 58 65 66 55 40 31 27 25 22 20 19 19 17 14 9 4 3 2 1 0 0 0 0 0 0 0 0 0 0 0 0 0 0
0 0 0 0 0 0 0 0 1 3 8 17 30 39 42 44 52 62 65 53 38 30 26 21 18 17 18 18 15 10 5 2 1 1 0 0 0 0 0 0 0 0 0 0 0 0 0 0 0
0 0 0 0 0 0 0 2 4 7 13 20 28 34 34 36 46 60 65 56 41 29 25 21 17 16 17 17 13 7 3 1 0 0 0 0 0 0 0 0 0 0 0 0 0 0 0 0 0
0 0 0 0 0 0 2 4 6 10 15 21 26 32 34 38 47 59 66 61 48 35 28 23 20 18 16 14 10 4 1 0 0 0 0 0 0 0 1 1 1 0 0 0 0 0 0 0 0
0 0 0 0 0 1 4 6 8 12 19 24 27 32 37 41 48 57 61 60 53 44 36 30 27 23 19 14 7 3 1 1 1 1 0 1 1 2 2 2 2 1 1 1 1 1 0 0 1
0 0 0 0 0 2 5 9 14 20 26 30 31 31 35 40 44 49 51 51 49 45 43 41 36 31 26 19 13 9 6 5 4 2 1 2 3 4 3 3 3 3 2 2 2 2 1 1 1
0 0 0 0 0 3 7 14 22 28 32 35 33 30 33 37 40 41 42 43 41 42 44 45 41 37 33 29 26 20 15 11 8 6 4 3 5 7 5 4 4 3 3 3 3 2 1 1 1
0 0 0 0 1 6 12 19 26 31 34 35 33 32 35 37 36 35 36 37 36 38 39 38 39 39 37 36 33 25 18 12 10 8 5 3 5 7 6 5 4 3 3 3 2 1 1 0 0
0 0 0 0 2 7 16 22 25 28 31 31 31 33 35 34 32 31 32 32 29 29 29 28 32 36 36 35 29 20 14 10 7 5 2 2 4 5 5 3 2 1 2 1 1 0 0 0 0
0 0 0 0 2 5 11 16 19 23 25 27 29 31 31 29 27 27 27 23 20 19 19 20 24 29 30 29 24 16 11 7 4 1 0 1 3 4 3 2 1 0 0 0 0 0 0 0 0
0 0 0 0 1 2 3 5 10 15 19 22 25 27 28 26 23 21 19 16 14 14 15 16 18 21 22 22 20 14 9 5 2 0 0 1 2 3 3 3 2 1 0 0 0 0 0 0 0
0 0 0 0 0 0 0 0 3 7 12 17 22 24 26 24 20 16 13 12 12 12 12 14 15 16 16 15 12 9 5 2 0 0 0 0 1 2 2 2 2 1 0 0 0 0 0 0 0
0 0 0 0 0 0 0 0 0 2 8 17 22 21 20 18 14 11 10 10 10 10 10 11 12 12 10 8 5 3 1 0 0 0 0 0 0 1 1 1 1 1 0 0 0 0 0 0 0
0 0 0 0 0 0 0 0 0 1 8 17 19 16 13 11 9 8 8 9 10 10 10 9 9 8 6 4 3 1 0 0 0 0 0 0 0 0 0 0 0 0 0 0 0 0 0 0 0
0 0 0 0 0 0 0 0 0 2 8 14 14 11 9 7 6 5 5 6 8 8 8 7 6 5 4 3 2 1 0 0 0 0 0 0 0 0 0 0 0 0 0 0 0 0 0 0 0
0 0 0 0 0 0 0 0 1 3 6 8 8 7 7 5 3 2 2 3 4 5 5 4 3 3 2 2 2 1 0 0 0 0 0 0 0 0 0 0 0 0 0 0 0 0 0 0 0
0 0 0 0 0 0 0 0 1 3 4 5 5 6 6 3 1 0 0 1 2 2 2 1 1 1 1 1 1 0 0 0 0 0 0 0 0 0 0 0 0 0 0 0 0 0 0 0 0
0 0 0 0 0 0 0 0 0 2 4 4 4 4 4 2 0 0 0 1 1 1 1 0 0 0 0 0 0 0 0 0 0 0 0 0 0 0 0 0 0 0 0 0 0 0 0 0 0
0 0 0 0 0 0 0 0 0 1 3 4 3 2 1 1 0 0 0 0 0 0 0 0 0 0 0 0 0 0 0 0 0 0 0 0 0 0 0 0 0 0 0 0 0 0 0 0 0